AIZ093 LLBG-LGIR

Flight info

Callsign AIZ093
Flight time N/A
Altitude 34000
Route SUVAS L53 STEPA M1 KAVOS UM1 SIT
Aircraft A320/M-SDE3FGHIRWY/LB1

Departure

Time N/A
Airport Ben Gurion International Airport (LLBG)

Arrival

Time 2026-05-01 14:47
Airport Heraklion International Nikos Kazantzakis Airport (LGIR)
Time Latitude Longitude Altitude Speed Heading
2026-05-01 14:39 35.28250 25.67881 9400 ft 260 kts 294°
2026-05-01 14:39 35.29036 25.65888 9056 ft 260 kts 294°
2026-05-01 14:40 35.29822 25.63894 8699 ft 260 kts 293°
2026-05-01 14:40 35.30605 25.61908 8337 ft 258 kts 293°
2026-05-01 14:40 35.31380 25.59898 7974 ft 256 kts 289°
2026-05-01 14:40 35.31743 25.57783 7572 ft 255 kts 272°
2026-05-01 14:41 35.31833 25.55622 7162 ft 251 kts 272°
2026-05-01 14:41 35.31930 25.53507 6765 ft 247 kts 272°
2026-05-01 14:41 35.32026 25.51438 6365 ft 241 kts 272°
2026-05-01 14:41 35.32120 25.49423 5967 ft 232 kts 272°
2026-05-01 14:42 35.32209 25.47484 5587 ft 225 kts 273°
2026-05-01 14:42 35.32298 25.45592 5212 ft 220 kts 273°
2026-05-01 14:42 35.32384 25.43737 4845 ft 216 kts 274°
2026-05-01 14:42 35.32466 25.41916 4468 ft 213 kts 274°
2026-05-01 14:43 35.32545 25.40124 4109 ft 209 kts 275°
2026-05-01 14:43 35.32603 25.38345 3627 ft 212 kts 274°
2026-05-01 14:43 35.32683 25.36549 3244 ft 209 kts 276°
2026-05-01 14:43 35.32798 25.34788 2911 ft 206 kts 277°
2026-05-01 14:44 35.32923 25.33053 2596 ft 202 kts 277°
2026-05-01 14:44 35.33154 25.29805 2033 ft 181 kts 279°
2026-05-01 14:44 35.33261 25.28323 1768 ft 169 kts 279°
2026-05-01 14:45 35.33361 25.26934 1529 ft 156 kts 280°
2026-05-01 14:45 35.33530 25.24456 1074 ft 140 kts 280°
2026-05-01 14:45 35.33614 25.23270 856 ft 139 kts 279°
2026-05-01 14:46 35.33693 25.22106 670 ft 136 kts 280°
2026-05-01 14:46 35.33850 25.19814 259 ft 133 kts 278°
2026-05-01 14:46 35.33900 25.19067 124 ft 133 kts 279°
2026-05-01 14:47 35.33976 25.18027 93 ft 104 kts 274°
2026-05-01 14:47 35.34021 25.17340 90 ft 47 kts 274°
2026-05-01 14:47 35.34001 25.17114 91 ft 21 kts 245°
2026-05-01 14:48 35.33963 25.17045 91 ft 0 kts 205°
2026-05-01 14:48 35.33960 25.17047 91 ft 2 kts 173°
2026-05-01 14:48 35.33937 25.17168 90 ft 11 kts 95°
2026-05-01 14:49 35.33919 25.17434 91 ft 20 kts 95°
2026-05-01 14:49 35.33903 25.17653 91 ft 10 kts 95°
2026-05-01 14:50 35.33868 25.17742 91 ft 5 kts 176°
2026-05-01 14:50 35.33811 25.17703 93 ft 4 kts 268°
2026-05-01 14:51 35.33811 25.17680 91 ft 2 kts 273°
2026-05-01 14:51 35.33812 25.17669 94 ft 0 kts 274°